Location: Biberach/Riss
(48.0994°N, 9.7902°E)
Time: 18:30:51
(UTC+01:00)

ISS - Visible Passes

Search period start: 14 December 2025 00:00
Search period end: 24 December 2025 00:00
Orbit: 416 x 420 km, 51.6° (Epoch: 13 December)

Date Brightness Start Highest point End Pass type
(mag) Time Alt. Az. Time Alt. Az. Time Alt. Az.
14 Dec -1.4 06:26:11 10° SSW 06:28:58 24° SE 06:31:46 10° E visible
15 Dec -0.8 05:39:00 10° S 05:41:09 16° SE 05:43:18 10° E visible
15 Dec -3.6 07:14:07 10° WSW 07:17:29 78° SSE 07:20:52 10° ENE visible
16 Dec -3.0 06:26:42 14° SW 06:29:29 53° SSE 06:32:48 10° ENE visible
17 Dec -2.4 05:41:17 34° SSE 05:41:31 35° SE 05:44:39 10° ENE visible
17 Dec -3.7 07:14:51 10° W 07:18:12 61° NNW 07:21:34 10° ENE visible
18 Dec -0.5 04:55:38 14° E 04:55:38 14° E 04:56:20 10° E visible
18 Dec -3.9 06:28:35 30° WSW 06:30:05 79° NNW 06:33:29 10° ENE visible
19 Dec -2.9 05:42:44 50° E 05:42:44 50° E 05:45:22 10° ENE visible
19 Dec -3.3 07:15:41 10° W 07:18:55 45° N 07:22:12 10° ENE visible
20 Dec -0.5 04:56:46 13° ENE 04:56:46 13° ENE 04:57:12 10° ENE visible
20 Dec -3.5 06:29:41 36° WNW 06:30:43 51° NNW 06:34:02 10° ENE visible
21 Dec -2.5 05:43:36 37° NE 05:43:36 37° NE 05:45:53 10° ENE visible
21 Dec -3.2 07:16:32 11° WNW 07:19:36 44° N 07:22:52 10° ENE visible
22 Dec -0.4 04:57:26 12° ENE 04:57:26 12° ENE 04:57:42 10° ENE visible
22 Dec -3.2 06:30:21 33° NW 06:31:20 43° N 06:34:35 10° ENE visible
23 Dec -2.3 05:44:07 33° NE 05:44:07 33° NE 05:46:20 10° ENE visible
23 Dec -3.4 07:17:02 11° WNW 07:20:09 55° NNE 07:23:29 10° E visible
